Regional Weather Roundup
Issued by NWS

Home | Current Version | Previous Version | Graphics & Text | Print | Product List | Glossary On
Versions: 1 2 3 4 5 6 7 8 9 10 11 12 13 14 15 16 17 18 19 20 21 22 23 24 25 26 27 28 29 30 31 32 33 34 35 36 37 38 39 40 41 42 43 44 45 46 47 48 49 50
000
ASUS43 KOAX 260302
RWRNE

WEATHER ROUNDUP FOR NEBRASKA
NATIONAL WEATHER SERVICE OMAHA NE
1000 PM CDT SUN JUN 25 2017

NOTES: SATELLITE DATA IS BEING USED TO AUGMENT CLOUD COVER ABOVE
       12000 FEET.
       "FAIR" INDICATES FEW OR NO CLOUDS BELOW 12,000 FEET WITH NO
       SIGNIFICANT WEATHER AND/OR OBSTRUCTIONS TO VISIBILITY.

  * THESE STATIONS DO NOT REPORT WEATHER SUCH AS RAIN...SNOW OR FOG.

NEZ001>004-019>022-054>056-260400-
NEBRASKA PANHANDLE

CITY           SKY/WX    TMP DP  RH WIND       PRES   REMARKS
SCOTTSBLUFF    CLEAR     69  46  43 SE8       30.21S
ALLIANCE       PTCLDY    60  44  55 S9        30.20F
CHADRON        CLEAR     67  42  40 NE9       30.18R
GORDON         FAIR      63  51  65 N3        30.20R HAZE
KIMBALL        CLEAR     60  53  77 S7        30.28F
SIDNEY         CLEAR     58  52  80 S9        30.28S
$$

NEZ057>060-069>072-079>082-260400-
SOUTHWEST NEBRASKA

CITY           SKY/WX    TMP DP  RH WIND       PRES   REMARKS
NORTH PLATTE   CLEAR     63  52  67 SW7       30.23R
IMPERIAL       CLEAR     58  52  80 S8        30.25F
LEXINGTON      CLEAR     60  49  65 S7        30.23S
MCCOOK         PTCLDY    60  54  80 S8        30.24F
OGALLALA       CLEAR     63  53  69 SW5       30.25R
$$

NEZ005>010-023>029-035>040-094-260400-
NORTH CENTRAL NEBRASKA

CITY           SKY/WX    TMP DP  RH WIND       PRES   REMARKS
VALENTINE      MOCLDY    69  45  41 SE8       30.16S
AINSWORTH      CLOUDY    62  45  53 SE7       30.17S
BROKEN BOW     CLEAR     66  49  54 S10       30.21R
O`NEILL        CLOUDY    65  44  45 S5        30.18S
ORD            CLEAR     61  43  51 S7        30.18S
THEDFORD       LGT RAIN  71  47  42 S8        30.20R
$$

NEZ041-046>049-061>064-073>077-083>087-260400-
SOUTH CENTRAL NEBRASKA

CITY           SKY/WX    TMP DP  RH WIND       PRES   REMARKS
GRAND ISLAND   CLEAR     66  47  50 SW9       30.22S
AURORA         CLEAR     64  48  54 SW8       30.22S
HASTINGS       CLEAR     63  46  54 S7        30.24F
HEBRON         CLEAR     61  51  70 S7        30.23F
HOLDREGE       CLEAR     60  50  68 S5        30.23F
KEARNEY *      CLEAR     61  46  59 S9        30.23S
YORK           CLEAR     64  48  55 S8        30.22S
$$

NEZ011>018-030>034-042>045-260400-
NORTHEAST NEBRASKA

CITY           SKY/WX    TMP DP  RH WIND       PRES   REMARKS
NORFOLK        CLEAR     61  42  49 S8        30.18S
ALBION         CLEAR     61  42  50 CALM      30.19F
BLAIR          CLEAR     65  45  48 SE3       30.20F
FREMONT        CLEAR     65  43  44 CALM      30.19F
TEKAMAH        CLEAR     61  43  51 SE7       30.18F
WAYNE          CLEAR     59  46  60 CALM      30.17F
$$

NEZ050>053-065>068-078-088>093-260400-
SOUTHEAST NEBRASKA

CITY           SKY/WX    TMP DP  RH WIND       PRES   REMARKS
LINCOLN        CLEAR     66  46  48 SE5       30.21F
OMAHA EPPLEY   PTCLDY    65  45  48 E5        30.20F
BEATRICE       CLEAR     64  51  63 SW5       30.23S
FALLS CITY     CLEAR     62  52  69 CALM      30.23R
NEBRASKA CITY  CLEAR     69  46  43 CALM      30.23S
PLATTSMOUTH    CLEAR     67  44  43 E5        30.22S
$$

NEZ044-045-051>053-067-260400-
OMAHA AREA

CITY           SKY/WX    TMP DP  RH WIND       PRES   REMARKS
OMAHA EPPLEY   PTCLDY    65  45  48 E5        30.20F
BLAIR          CLEAR     65  45  48 SE3       30.20F
FREMONT        CLEAR     65  43  44 CALM      30.19F
MILLARD        CLEAR     65  51  61 CALM      30.20F
OFFUTT AFB     CLEAR     61  48  62 SE3       30.20F
PLATTSMOUTH    CLEAR     67  44  43 E5        30.22S
WAHOO          FAIR      61  45  55 SE6       30.20F
$$




USA.gov is the U.S. government's official web portal to all federal, state and local government web resources and services.